W2SRH Weather Reports


time (UTC)temp
C
wind
direction
speed
KPH
gust
KPH
rain 1hr
cm
rain 24hr
cm
rain mn
cm
humidity
%
barometer
mb
20260901000903 23 0 0.0 0.0 0.00 1.17 0.03 83 1009.7
20260831235903 23 0 0.0 0.0 0.00 1.17 0.03 81 1009.5
20260831234905 23 0 0.0 0.0 0.00 1.17 0.03 79 1009.6
20260831233903 24 112 0.0 1.6 0.00 1.17 0.03 73 1009.6
20260831232907 24 111 0.0 1.6 0.00 1.17 0.03 71 1009.8
20260831231905 25 0 0.0 0.0 0.00 1.17 0.03 74 1009.8
20260831231128 25 0 0.0 1.6 0.00 1.17 0.03 73 1010.0
20260831231121 25 111 0.0 1.6 0.00 1.17 0.03 72 1010.1
20260831230903 25 0 0.0 0.0 0.00 1.17 0.03 74 1009.8
20260831225903 25 0 0.0 1.6 0.00 1.17 0.03 73 1010.0
20260831224904 25 111 0.0 1.6 0.00 1.17 0.03 72 1010.1
20260831223914 25 0 0.0 1.6 0.00 1.17 0.03 69 1010.2
20260831223903 25 112 0.0 1.6 0.00 1.17 0.03 70 1010.0
20260831222905 25 111 0.0 1.6 0.00 1.17 0.03 69 1010.0
20260831221904 25 0 0.0 1.6 0.00 1.17 0.03 69 1010.1
20260831220904 25 0 0.0 1.6 0.00 1.17 0.03 69 1010.2
20260831220716 25 0 0.0 1.6 0.00 1.17 0.03 70 1010.3
20260831215905 25 111 0.0 1.6 0.00 1.17 0.03 69 1010.2
20260831214906 25 0 0.0 0.0 0.00 1.17 0.03 71 1010.1
20260831213905 25 0 0.0 1.6 0.00 1.17 0.03 70 1010.3
20260831212905 25 131 0.0 3.2 0.00 1.17 0.03 69 1010.3
20260831211904 25 47 0.0 1.6 0.00 1.17 0.03 69 1010.4
20260831210905 25 72 0.0 3.2 0.00 1.17 0.03 69 1010.4
20260831210318 25 0 0.0 3.2 0.00 1.17 0.03 70 1010.7
20260831205904 25 61 0.0 1.6 0.00 1.17 0.03 70 1010.4
20260831204904 25 0 0.0 3.2 0.00 1.17 0.03 70 1010.7
20260831203903 25 0 0.0 3.2 0.00 1.17 0.03 70 1010.7
20260831202904 25 33 0.0 3.2 0.00 1.19 0.03 66 1010.8
20260831201904 25 33 0.0 3.2 0.00 1.19 0.03 66 1010.8
20260831200903 25 46 0.0 3.2 0.00 1.19 0.03 67 1010.9
20260831195924 25 65 1.6 3.2 0.00 1.19 0.03 67 1011.0
20260831195904 25 51 1.6 4.8 0.00 1.19 0.03 67 1010.9
20260831194904 25 63 1.6 3.2 0.00 1.19 0.03 68 1011.0
20260831193904 25 65 1.6 3.2 0.00 1.19 0.03 67 1011.0
20260831192906 25 74 1.6 3.2 0.00 1.19 0.03 67 1011.0
20260831192723 25 88 3.2 8.0 0.00 1.19 0.03 66 1011.1
20260831192710 26 72 1.6 4.8 0.00 1.19 0.03 65 1011.4
20260831191904 25 102 0.0 3.2 0.00 1.19 0.03 66 1011.2
20260831190903 25 88 3.2 8.0 0.00 1.19 0.03 66 1011.1
20260831185905 26 72 1.6 4.8 0.00 1.19 0.03 65 1011.4
20260831185524 25 73 1.6 3.2 0.00 1.19 0.03 66 1011.4
20260831184904 26 46 0.0 1.6 0.00 1.19 0.03 65 1011.5
20260831183904 25 73 1.6 3.2 0.00 1.19 0.03 66 1011.4
20260831182905 25 53 1.6 3.2 0.00 1.19 0.03 65 1011.5
20260831181905 26 94 0.0 3.2 0.00 1.19 0.03 66 1011.4
20260831180904 25 87 1.6 4.8 0.00 1.19 0.03 66 1011.6
20260831175906 25 60 3.2 8.0 0.00 1.19 0.03 65 1011.7
20260831174904 26 108 3.2 8.0 0.00 1.19 0.03 65 1011.6
20260831173907 26 104 1.6 4.8 0.00 1.19 0.03 63 1011.6
20260831172905 26 146 3.2 8.0 0.00 1.19 0.03 64 1011.6
20260831171907 26 36 3.2 6.4 0.00 1.19 0.03 63 1011.6
20260831170904 26 130 0.0 6.4 0.00 1.19 0.03 63 1011.6
20260831165904 26 205 3.2 6.4 0.00 1.19 0.03 64 1011.7
20260831164904 25 268 1.6 4.8 0.00 1.19 0.03 65 1011.7
20260831163905 25 156 3.2 8.0 0.00 1.19 0.03 67 1011.7
20260831162950 24 56 0.0 4.8 0.00 1.19 0.03 67 1011.8
20260831162909 24 56 0.0 4.8 0.00 1.19 0.03 67 1011.8
20260831161939 25 52 1.6 4.8 0.00 1.19 0.03 69 1012.0
20260831161904 25 52 1.6 4.8 0.00 1.19 0.03 69 1012.0
20260831160905 24 121 1.6 6.4 0.00 1.19 0.03 70 1011.9
20260831155905 24 106 1.6 6.4 0.00 1.19 0.03 70 1011.9
20260831154906 24 177 1.6 4.8 0.00 1.19 0.03 68 1011.9
20260831153908 24 147 1.6 3.2 0.00 1.19 0.03 69 1011.8
20260831152905 23 50 1.6 4.8 0.00 1.19 0.03 72 1011.9
20260831151905 23 71 1.6 4.8 0.00 1.19 0.03 72 1012.2
20260831151116 22 86 1.6 4.8 0.00 1.19 0.03 77 1012.3
20260831150904 23 56 0.0 4.8 0.00 1.19 0.03 75 1012.2
20260831145904 23 98 0.0 3.2 0.00 1.19 0.03 76 1012.1
20260831144904 22 86 1.6 4.8 0.00 1.19 0.03 77 1012.3
20260831143908 22 71 1.6 3.2 0.00 1.19 0.03 81 1012.2
20260831143906 22 61 0.0 3.2 0.00 1.19 0.03 77 1012.2
20260831142905 22 63 1.6 3.2 0.00 1.19 0.03 77 1012.2
20260831141904 22 68 1.6 4.8 0.00 1.19 0.03 77 1012.2
20260831140904 22 71 1.6 3.2 0.00 1.19 0.03 81 1012.2
20260831135905 22 91 1.6 4.8 0.00 1.19 0.03 80 1012.0
20260831134904 22 100 1.6 6.4 0.00 1.19 0.03 81 1012.0
20260831133905 21 64 0.0 4.8 0.00 1.19 0.03 82 1012.2
20260831132904 21 59 1.6 4.8 0.00 1.19 0.03 83 1012.1
20260831131904 21 56 1.6 4.8 0.00 1.19 0.03 84 1012.1
20260831130906 21 43 0.0 4.8 0.00 1.19 0.03 86 1012.1
20260831125957 21 41 1.6 4.8 0.00 1.19 0.03 86 1012.2
20260831125908 21 41 1.6 4.8 0.00 1.19 0.03 86 1012.2
20260831124945 21 30 0.0 1.6 0.00 1.19 0.03 87 1012.1
20260831124904 21 30 0.0 1.6 0.00 1.19 0.03 87 1012.1
20260831123905 21 26 1.6 3.2 0.00 1.19 0.03 88 1012.1
20260831123107 20 0 0.0 3.2 0.00 1.19 0.03 90 1012.0
20260831122904 20 26 0.0 1.6 0.00 1.19 0.03 90 1012.1
20260831121904 20 12 0.0 3.2 0.00 1.19 0.03 89 1012.0
20260831120946 20 0 0.0 3.2 0.00 1.19 0.03 90 1012.0
20260831120903 20 0 0.0 3.2 0.00 1.19 0.03 90 1012.0
20260831115904 20 0 0.0 0.0 0.00 1.19 0.03 91 1011.9
20260831114952 20 0 0.0 0.0 0.00 1.19 0.03 92 1011.7
20260831114909 20 0 0.0 0.0 0.00 1.19 0.03 92 1011.7
20260831112905 20 0 0.0 0.0 0.00 1.19 0.03 91 1011.4
20260831112707 19 30 0.0 1.6 0.00 1.19 0.03 92 1011.2
20260831112658 19 30 0.0 1.6 0.00 1.19 0.03 92 1011.3
20260831111903 20 0 0.0 1.6 0.00 1.19 0.03 91 1011.3
20260831110904 19 30 0.0 1.6 0.00 1.19 0.03 92 1011.2
20260831105905 19 30 0.0 1.6 0.00 1.19 0.03 92 1011.3
20260831105512 19 12 0.0 1.6 0.00 1.19 0.03 91 1011.3
20260831104954 19 21 0.0 1.6 0.00 1.19 0.03 92 1011.2
20260831104904 19 21 0.0 1.6 0.00 1.19 0.03 92 1011.2
20260831103905 19 12 0.0 1.6 0.00 1.19 0.03 91 1011.3
20260831102904 19 23 0.0 1.6 0.00 1.19 0.03 90 1011.2
20260831102310 19 43 0.0 1.6 0.00 1.19 0.03 92 1010.8
20260831101905 19 24 0.0 3.2 0.00 1.19 0.03 90 1011.0
20260831100904 19 33 0.0 3.2 0.00 1.19 0.03 91 1010.9
20260831095939 19 43 0.0 1.6 0.00 1.19 0.03 92 1010.8
20260831095905 19 43 0.0 1.6 0.00 1.19 0.03 92 1010.8
20260831095110 20 42 0.0 3.2 0.00 1.19 0.03 93 1010.3
20260831095054 20 28 0.0 3.2 0.00 1.19 0.03 93 1010.5
20260831094904 20 36 0.0 1.6 0.00 1.19 0.03 92 1010.8
20260831093903 19 21 0.0 1.6 0.00 1.19 0.03 92 1010.7
20260831092942 20 42 0.0 3.2 0.00 1.19 0.03 93 1010.3
20260831092903 20 42 0.0 3.2 0.00 1.19 0.03 93 1010.3
20260831091905 20 39 0.0 3.2 0.00 1.19 0.03 94 1010.7
20260831091855 20 40 0.0 1.6 0.00 1.19 0.03 94 1010.5
20260831090903 20 30 0.0 1.6 0.00 1.19 0.03 93 1010.6
20260831085904 20 39 0.0 3.2 0.00 1.19 0.03 94 1010.7
20260831084904 20 40 0.0 1.6 0.00 1.19 0.03 94 1010.5
20260831084659 20 38 0.0 3.2 0.00 1.19 0.03 95 1010.8
20260831083904 20 49 0.0 4.8 0.00 1.19 0.03 95 1010.6
20260831082903 20 23 0.0 4.8 0.00 1.19 0.03 95 1010.7
20260831081903 20 38 0.0 3.2 0.00 1.19 0.03 95 1010.8
20260831080903 20 33 0.0 1.6 0.00 1.19 0.03 95 1010.6
20260831075904 20 45 0.0 3.2 0.00 1.19 0.03 95 1010.7
20260831074904 21 43 0.0 3.2 0.00 1.19 0.03 95 1010.7
20260831074306 21 3 0.0 1.6 0.00 1.19 0.03 95 1010.5
20260831073904 21 24 0.0 3.2 0.00 1.19 0.03 95 1010.7
20260831072904 21 23 0.0 3.2 0.00 1.19 0.03 95 1010.6
20260831071904 21 3 0.0 1.6 0.00 1.19 0.03 95 1010.5
20260831071105 21 0 0.0 0.0 0.00 1.19 0.03 95 1010.6
20260831070904 21 3 0.0 1.6 0.00 1.19 0.03 95 1010.4
20260831065905 21 0 0.0 1.6 0.00 1.19 0.03 95 1010.6
20260831064903 21 0 0.0 0.0 0.00 1.19 0.03 95 1010.6
20260831062903 21 4 0.0 1.6 0.00 1.19 0.03 95 1010.6
20260831061903 21 3 0.0 1.6 0.00 1.19 0.03 95 1010.6
20260831060904 21 0 0.0 0.0 0.00 1.19 0.03 95 1010.7
20260831060655 21 0 0.0 0.0 0.00 1.19 0.03 94 1010.7
20260831055903 21 0 0.0 0.0 0.00 1.19 0.03 95 1010.5
20260831054906 21 0 0.0 0.0 0.00 1.19 0.03 95 1010.3
20260831053903 21 0 0.0 0.0 0.00 1.19 0.03 94 1010.7
20260831053454 21 9 1.6 3.2 0.03 1.19 0.03 94 1010.6
20260831052903 21 3 0.0 1.6 0.03 1.19 0.03 94 1010.6
20260831051903 21 3 0.0 1.6 0.03 1.19 0.03 94 1010.6
20260831050904 21 9 1.6 3.2 0.03 1.19 0.03 94 1010.6
20260831050258 21 25 0.0 1.6 0.13 1.19 0.03 94 1010.8
20260831045904 21 23 0.0 1.6 0.03 1.19 0.03 94 1010.7
20260831044904 21 23 0.0 1.6 0.08 1.19 0.03 94 1010.8
20260831043904 21 25 0.0 1.6 0.13 1.19 0.03 94 1010.8
20260831043058 21 38 0.0 3.2 0.10 1.17 0.00 93 1010.9
20260831042906 21 0 0.0 0.0 0.10 1.17 0.00 93 1010.9
20260831041904 21 0 0.0 1.6 0.10 1.17 0.00 93 1010.9
20260831040905 21 38 0.0 3.2 0.10 1.17 0.00 93 1010.9
20260831035904 21 55 0.0 4.8 0.15 1.17 1.17 92 1010.9
20260831034904 21 50 1.6 6.4 0.08 1.07 1.07 92 1011.1
20260831033904 21 22 1.6 6.4 0.66 1.07 1.07 92 1011.1
20260831032905 21 43 1.6 4.8 1.02 1.07 1.07 92 1010.7
20260831031903 21 28 1.6 4.8 1.04 1.07 1.07 92 1010.8
20260831030903 21 315 0.0 4.8 1.02 1.04 1.04 92 1011.1
20260831025903 22 344 1.6 6.4 0.94 0.97 0.97 92 1010.9
20260831024904 21 264 3.2 8.0 0.84 0.86 0.86 92 1010.7
20260831023903 22 26 4.8 14.5 0.08 0.10 0.10 87 1011.1
20260831022906 24 352 0.0 9.7 0.03 0.05 0.05 85 1010.6
20260831021904 24 63 0.0 1.6 0.00 0.03 0.03 84 1010.2
20260831020904 24 0 0.0 0.0 0.00 0.03 0.03 83 1010.2
20260831015905 24 0 0.0 1.6 0.00 0.03 0.03 83 1010.4
20260831015056 25 9 0.0 1.6 0.00 0.03 0.03 78 1010.8
20260831014904 25 0 0.0 1.6 0.00 0.03 0.03 80 1010.6
20260831013904 25 9 0.0 1.6 0.00 0.03 0.03 79 1010.8
20260831012904 25 9 0.0 1.6 0.00 0.03 0.03 78 1010.8
20260831011906 25 322 0.0 3.2 0.00 0.03 0.03 76 1010.7
20260831011845 26 336 0.0 3.2 0.00 0.03 0.03 74 1010.4
20260831010903 25 0 0.0 0.0 0.00 0.03 0.03 76 1010.5
20260831005905 26 331 0.0 3.2 0.00 0.03 0.03 75 1010.5
20260831004903 26 336 0.0 3.2 0.00 0.03 0.03 74 1010.4
20260831003903 26 338 0.0 1.6 0.00 0.03 0.03 74 1010.4
20260831002904 26 306 0.0 1.6 0.00 0.03 0.03 73 1010.1
20260831001906 26 298 0.0 1.6 0.00 0.03 0.03 73 1010.1